Volver al catálogo

AO-07

OSCAR 7

ActivoRadioaficionadoSSO
NORAD 7530·PAYLOAD·🇺🇸 United States

Lanzado Nov 15, 1974 desde Vandenberg Space Force Base

Loading…

Próximos Pases (próximas 24 horas)

TLE

ActualizadoSource: Space-Track

Época: Sep 14, 2026, 12:57 UTC

1 07530U 74089B   26257.54007877 -.00000046  00000-0  36753-5 0  9993
2 07530 101.9919 271.7209 0012040 322.1588 206.0208 12.53699636371718

Sigue AO-07 en tiempo real con AllMySat

Download on the App Store